Location: Alphen
(52.1351°N, 4.6549°E)
Time: 01:27:19
(UTC+00:00)

Cosmos 2219 Rocket - Pass Details

Date: 27 January 2021
Orbit: 828 x 846 km, 71.0° (Epoch: 26 February)

Event Time Altitude Azimuth Distance (km) Brightness Sun altitude
Exits shadow 05:23:25 25° 317° (NW) 1,610 3.2 -19.1°
Maximum altitude 05:23:43 26° 322° (NW) 1,605 3.3 -19.0°
Drops below altitude 10° 05:28:20 10° 18° (NNE) 2,448 4.7 -18.3°
Sets 05:31:13 0° 31° (NNE) 3,387 5.7 -17.9°
